Monticello, IA

5:15 PM CST on February 22, 2017 (GMT -0600)
Monticello Regional

Weather History for KMXO - April, 2013

Change the Weather History Date:

Saturday, April 13, 2013

  Actual Average Record
Temperature  
Mean Temperature 40 °F -  
Max Temperature 46 °F 58 °F 73 °F (2003)
Min Temperature 33 °F 37 °F 17 °F (1997)
Degree Days  
Heating Degree Days 26    
Moisture  
Dew Point 29 °F    
Average Humidity 68    
Maximum Humidity 81    
Minimum Humidity 53    
Precipitation  
Precipitation 0.00 in - - ()
Sea Level Pressure  
Sea Level Pressure 29.93 in    
Wind  
Wind Speed 12 mph (WNW)    
Max Wind Speed 21 mph    
Max Gust Speed 25 mph    
Visibility 10 miles    
Events Snow    
Averages and records for this station are not official NWS values.
T = Trace of Precipitation, MM = Missing Value Source: NWS Daily Summary

Daily Weather History Graph

Daily Weather History Graph

Search for Another Location

Airport or City:

Trip Planner

Search our weather history database for the weather conditions in past years. The results will help you decide how hot, cold, wet, or windy it might be!

Date:

Astronomy

Apr. 13, 2013 Rise Set
Actual Time 6:26 AM CDT 7:44 PM CDT
Civil Twilight 5:57 AM CDT 8:13 PM CDT
Nautical Twilight 5:23 AM CDT 8:48 PM CDT
Astronomical Twilight 4:46 AM CDT 9:25 PM CDT
Moon 8:15 AM CDT (4/13) 11:11 PM CDT (4/13)
Length of Visible Light 14h 15m
Length of Day
13h 17m
Waxing Crescent, 10% of the Moon is Illuminated
Apr 13
Waxing Crescent
Apr 18
First Quarter
Apr 25
Full
May 2
Last Quarter
May 9
New

Hourly Weather History & Observations

Time (CDT) Temp. Windchill Dew Point Humidity Pressure Visibility Wind Dir Wind Speed Gust Speed Precip Events Conditions
12:15 AM 35.6 °F 28.0 °F 28.4 °F 75% 29.88 in 10.0 mi West 10.4 mph - N/A   Overcast
12:35 AM 35.6 °F 28.0 °F 28.4 °F 75% 29.89 in 10.0 mi WSW 10.4 mph - N/A   Overcast
12:55 AM 35.6 °F 28.0 °F 28.4 °F 75% 29.89 in 10.0 mi West 10.4 mph - N/A   Overcast
1:15 AM 35.6 °F 27.1 °F 28.4 °F 75% 29.89 in 10.0 mi West 12.7 mph - N/A   Overcast
1:35 AM 35.6 °F 27.1 °F 28.4 °F 75% 29.89 in 10.0 mi West 12.7 mph - N/A   Overcast
1:55 AM 35.6 °F 26.6 °F 28.4 °F 75% 29.89 in 10.0 mi West 13.8 mph - N/A   Overcast
2:15 AM 35.6 °F 27.5 °F 28.4 °F 75% 29.88 in 10.0 mi West 11.5 mph 18.4 mph N/A   Overcast
2:35 AM 35.6 °F 26.6 °F 28.4 °F 75% 29.88 in 10.0 mi West 13.8 mph 18.4 mph N/A   Overcast
2:55 AM 35.6 °F 27.1 °F 28.4 °F 75% 29.88 in 10.0 mi West 12.7 mph 18.4 mph N/A   Overcast
3:15 AM 35.6 °F 27.1 °F 28.4 °F 75% 29.88 in 10.0 mi West 12.7 mph 17.3 mph N/A   Overcast
3:35 AM 35.6 °F 27.1 °F 28.4 °F 75% 29.88 in 10.0 mi West 12.7 mph 21.9 mph N/A   Overcast
3:55 AM 35.6 °F 27.5 °F 28.4 °F 75% 29.88 in 10.0 mi West 11.5 mph - N/A   Overcast
4:15 AM 33.8 °F 24.8 °F 28.4 °F 81% 29.88 in 7.0 mi West 12.7 mph 19.6 mph N/A Snow Light Snow
4:35 AM 33.8 °F 24.3 °F 28.4 °F 81% 29.89 in 7.0 mi West 13.8 mph 20.7 mph N/A   Overcast
4:55 AM 33.8 °F 24.8 °F 28.4 °F 81% 29.89 in 5.0 mi West 12.7 mph 25.3 mph N/A Snow Light Snow
5:15 AM 33.8 °F 24.8 °F 28.4 °F 81% 29.89 in 10.0 mi West 12.7 mph 18.4 mph N/A   Overcast
5:35 AM 33.8 °F 23.9 °F 28.4 °F 81% 29.89 in 10.0 mi West 15.0 mph - N/A   Overcast
5:55 AM 33.8 °F 23.5 °F 28.4 °F 81% 29.89 in 10.0 mi West 16.1 mph - N/A   Overcast
6:15 AM 33.8 °F 24.8 °F 26.6 °F 75% 29.90 in 10.0 mi West 12.7 mph - N/A   Overcast
6:35 AM 33.8 °F 24.3 °F 26.6 °F 75% 29.90 in 10.0 mi West 13.8 mph - N/A   Overcast
6:55 AM 33.8 °F 24.3 °F 26.6 °F 75% 29.91 in 10.0 mi WNW 13.8 mph - N/A   Overcast
7:15 AM 33.8 °F 24.3 °F 26.6 °F 75% 29.92 in 10.0 mi WNW 13.8 mph 20.7 mph N/A   Overcast
7:35 AM 33.8 °F 25.8 °F 26.6 °F 75% 29.93 in 10.0 mi West 10.4 mph - N/A   Scattered Clouds
7:55 AM 35.6 °F 26.2 °F 26.6 °F 70% 29.93 in 10.0 mi West 15.0 mph - N/A   Clear
8:15 AM 35.6 °F 26.2 °F 26.6 °F 70% 29.93 in 10.0 mi West 15.0 mph - N/A   Mostly Cloudy
8:35 AM 35.6 °F 28.0 °F 26.6 °F 70% 29.94 in 10.0 mi WNW 10.4 mph - N/A   Overcast
8:55 AM 35.6 °F 25.5 °F 26.6 °F 70% 29.94 in 10.0 mi WNW 17.3 mph - N/A   Overcast
9:15 AM 35.6 °F 27.5 °F 26.6 °F 70% 29.95 in 10.0 mi WNW 11.5 mph 17.3 mph N/A   Overcast
9:35 AM 35.6 °F 26.6 °F 26.6 °F 70% 29.95 in 10.0 mi WNW 13.8 mph - N/A   Overcast
9:55 AM 35.6 °F 25.9 °F 26.6 °F 70% 29.96 in 10.0 mi West 16.1 mph - N/A   Overcast
10:15 AM 35.6 °F 26.2 °F 26.6 °F 70% 29.96 in 10.0 mi West 15.0 mph - N/A   Overcast
10:35 AM 37.4 °F 28.5 °F 26.6 °F 65% 29.97 in 10.0 mi West 15.0 mph - N/A   Overcast
10:55 AM 37.4 °F 27.8 °F 28.4 °F 70% 29.97 in 10.0 mi West 17.3 mph 20.7 mph N/A   Overcast
11:15 AM 37.4 °F 26.9 °F 26.6 °F 65% 29.98 in 10.0 mi West 20.7 mph 25.3 mph N/A   Overcast
11:35 AM 37.4 °F 28.2 °F 26.6 °F 65% 29.98 in 10.0 mi West 16.1 mph 24.2 mph N/A   Overcast
11:55 AM 37.4 °F 27.5 °F 28.4 °F 70% 29.98 in 10.0 mi West 18.4 mph 24.2 mph N/A   Overcast
12:15 PM 39.2 °F 30.5 °F 28.4 °F 65% 29.98 in 10.0 mi West 16.1 mph 20.7 mph N/A   Overcast
12:35 PM 39.2 °F 30.8 °F 28.4 °F 65% 29.97 in 10.0 mi West 15.0 mph 20.7 mph N/A   Overcast
12:55 PM 39.2 °F 30.2 °F 28.4 °F 65% 29.96 in 10.0 mi WNW 17.3 mph 20.7 mph N/A   Mostly Cloudy
1:15 PM 42.8 °F 34.8 °F 28.4 °F 57% 29.96 in 10.0 mi WNW 17.3 mph - N/A   Scattered Clouds
1:35 PM 42.8 °F 34.8 °F 28.4 °F 57% 29.96 in 10.0 mi WNW 17.3 mph 24.2 mph N/A   Mostly Cloudy
1:55 PM 42.8 °F 35.1 °F 30.2 °F 61% 29.96 in 10.0 mi West 16.1 mph 21.9 mph N/A   Overcast
2:15 PM 44.6 °F 37.8 °F 30.2 °F 57% 29.95 in 10.0 mi WNW 15.0 mph - N/A   Overcast
2:35 PM 44.6 °F 37.4 °F 30.2 °F 57% 29.95 in 10.0 mi West 16.1 mph 20.7 mph N/A   Overcast
2:55 PM 44.6 °F 38.4 °F 30.2 °F 57% 29.95 in 10.0 mi West 12.7 mph 18.4 mph N/A   Overcast
3:15 PM 44.6 °F 38.1 °F 30.2 °F 57% 29.94 in 10.0 mi West 13.8 mph - N/A   Overcast
3:35 PM 46.4 °F 40.1 °F 30.2 °F 53% 29.93 in 10.0 mi West 15.0 mph 19.6 mph N/A   Mostly Cloudy
3:55 PM 44.6 °F 38.8 °F 30.2 °F 57% 29.93 in 10.0 mi West 11.5 mph - N/A   Mostly Cloudy
4:15 PM 46.4 °F 40.1 °F 30.2 °F 53% 29.93 in 10.0 mi West 15.0 mph 19.6 mph N/A   Mostly Cloudy
4:35 PM 46.4 °F 40.7 °F 30.2 °F 53% 29.93 in 10.0 mi West 12.7 mph 20.7 mph N/A   Mostly Cloudy
4:55 PM 46.4 °F 41.1 °F 30.2 °F 53% 29.93 in 10.0 mi West 11.5 mph 17.3 mph N/A   Overcast
5:15 PM 46.4 °F 41.1 °F 30.2 °F 53% 29.92 in 10.0 mi WNW 11.5 mph 16.1 mph N/A   Mostly Cloudy
5:35 PM 46.4 °F 41.9 °F 30.2 °F 53% 29.93 in 10.0 mi West 9.2 mph - N/A   Scattered Clouds
5:55 PM 46.4 °F 42.9 °F 30.2 °F 53% 29.93 in 10.0 mi West 6.9 mph - N/A   Mostly Cloudy
6:15 PM 46.4 °F 42.9 °F 30.2 °F 53% 29.93 in 10.0 mi West 6.9 mph - N/A   Overcast
6:35 PM 46.4 °F 44.3 °F 30.2 °F 53% 29.92 in 10.0 mi WNW 4.6 mph - N/A   Mostly Cloudy
7:15 PM 44.6 °F - 32.0 °F 61% 29.92 in 10.0 mi Calm Calm - N/A   Overcast
7:35 PM 44.6 °F 43.1 °F 32.0 °F 61% 29.91 in 10.0 mi East 3.5 mph - N/A   Overcast
7:55 PM 44.6 °F 43.1 °F 33.8 °F 66% 29.91 in 10.0 mi NNE 3.5 mph - N/A   Overcast
8:15 PM 44.6 °F - 33.8 °F 66% 29.91 in 10.0 mi Calm Calm - N/A   Overcast
8:35 PM 44.6 °F - 35.6 °F 71% 29.92 in 10.0 mi Calm Calm - N/A   Overcast
8:55 PM 44.6 °F - 35.6 °F 71% 29.92 in 10.0 mi Calm Calm - N/A   Overcast
9:15 PM 42.8 °F 41.1 °F 33.8 °F 70% 29.93 in 10.0 mi NE 3.5 mph - N/A   Overcast
9:35 PM 42.8 °F 41.1 °F 33.8 °F 70% 29.94 in 10.0 mi ENE 3.5 mph - N/A   Overcast
9:55 PM 42.8 °F 39.3 °F 33.8 °F 70% 29.95 in 10.0 mi ENE 5.8 mph - N/A   Overcast
10:15 PM 42.8 °F 40.1 °F 32.0 °F 66% 29.95 in 10.0 mi ENE 4.6 mph - N/A   Overcast
10:35 PM 42.8 °F 40.1 °F 33.8 °F 70% 29.95 in 10.0 mi East 4.6 mph - N/A   Overcast
10:55 PM 42.8 °F 40.1 °F 32.0 °F 66% 29.95 in 10.0 mi ENE 4.6 mph - N/A   Overcast
11:15 PM 42.8 °F 40.1 °F 33.8 °F 70% 29.96 in 10.0 mi ENE 4.6 mph - N/A   Overcast
11:35 PM 42.8 °F 40.1 °F 33.8 °F 70% 29.95 in 10.0 mi ENE 4.6 mph - N/A   Overcast
11:55 PM 42.8 °F 40.1 °F 33.8 °F 70% 29.95 in 10.0 mi ENE 4.6 mph - N/A   Overcast